| time (UTC) | temp C | wind direction | speed KPH | gust KPH | rain 1hr cm | rain 24hr cm | rain mn cm | humidity % | barometer mb |
| 20260507024602 | 8 | 209 | 3.2 | 17.7 | 0.00 | 0.00 | 0.00 | 39 | 1005.9 |
| 20260507023041 | 8 | 271 | 4.8 | 20.9 | 0.00 | 0.00 | 0.00 | 39 | 1005.7 |
| 20260507021547 | 8 | 236 | 6.4 | 20.9 | 0.00 | 0.00 | 0.00 | 39 | 1005.7 |
| 20260507020051 | 9 | 233 | 8.0 | 19.3 | 0.00 | 0.00 | 0.00 | 39 | 1005.4 |
| 20260507014542 | 10 | 201 | 3.2 | 17.7 | 0.00 | 0.00 | 0.00 | 39 | 1005.1 |
| 20260507013038 | 10 | 255 | 1.6 | 17.7 | 0.00 | 0.00 | 0.00 | 40 | 1005.0 |
| 20260507011534 | 11 | 237 | 1.6 | 16.1 | 0.00 | 0.00 | 0.00 | 40 | 1004.7 |
| 20260507010035 | 11 | 261 | 1.6 | 6.4 | 0.00 | 0.00 | 0.00 | 40 | 1004.7 |
| 20260507004528 | 12 | 259 | 1.6 | 8.0 | 0.00 | 0.00 | 0.00 | 40 | 1004.4 |
| 20260507003028 | 12 | 306 | 0.0 | 12.9 | 0.00 | 0.00 | 0.00 | 40 | 1004.0 |
| 20260507001533 | 13 | 47 | 1.6 | 9.7 | 0.00 | 0.00 | 0.00 | 40 | 1003.8 |
| 20260507000027 | 14 | 350 | 4.8 | 12.9 | 0.00 | 0.00 | 0.00 | 40 | 1003.5 |
| 20260506234526 | 15 | 162 | 0.0 | 3.2 | 0.00 | 0.00 | 0.00 | 40 | 1003.0 |
| 20260506233026 | 15 | 164 | 0.0 | 3.2 | 0.00 | 0.00 | 0.00 | 40 | 1003.0 |
| 20260506231525 | 15 | 163 | 0.0 | 1.6 | 0.00 | 0.00 | 0.00 | 40 | 1003.0 |
| 20260506230024 | 15 | 162 | 0.0 | 9.7 | 0.00 | 0.00 | 0.00 | 40 | 1002.9 |
| 20260506224526 | 15 | 22 | 1.6 | 9.7 | 0.00 | 0.00 | 0.00 | 40 | 1002.8 |
| 20260506223024 | 15 | 190 | 1.6 | 9.7 | 0.00 | 0.00 | 0.00 | 40 | 1003.0 |
| 20260506221523 | 15 | 46 | 1.6 | 8.0 | 0.00 | 0.00 | 0.00 | 40 | 1002.8 |
| 20260506220021 | 15 | 74 | 1.6 | 9.7 | 0.00 | 0.00 | 0.00 | 40 | 1002.9 |
| 20260506214521 | 15 | 61 | 1.6 | 9.7 | 0.00 | 0.00 | 0.00 | 40 | 1002.9 |
| 20260506213020 | 15 | 55 | 0.0 | 14.5 | 0.00 | 0.00 | 0.00 | 40 | 1002.9 |
| 20260506211522 | 15 | 35 | 0.0 | 8.0 | 0.00 | 0.00 | 0.00 | 40 | 1003.2 |
| 20260506210018 | 15 | 46 | 1.6 | 8.0 | 0.00 | 0.00 | 0.00 | 40 | 1003.2 |
| 20260506204517 | 15 | 9 | 1.6 | 4.8 | 0.00 | 0.00 | 0.00 | 40 | 1003.2 |
| 20260506203015 | 15 | 71 | 0.0 | 4.8 | 0.00 | 0.00 | 0.00 | 40 | 1003.3 |
| 20260506201513 | 15 | 104 | 0.0 | 4.8 | 0.00 | 0.00 | 0.00 | 40 | 1003.5 |
| 20260506200012 | 15 | 151 | 1.6 | 6.4 | 0.00 | 0.00 | 0.00 | 40 | 1003.6 |
| 20260506194511 | 15 | 82 | 1.6 | 8.0 | 0.00 | 0.00 | 0.00 | 40 | 1003.8 |
| 20260506193009 | 15 | 73 | 0.0 | 6.4 | 0.00 | 0.00 | 0.00 | 40 | 1004.1 |
| 20260506191508 | 15 | 157 | 0.0 | 8.0 | 0.00 | 0.00 | 0.00 | 40 | 1004.1 |
| 20260506190007 | 15 | 69 | 1.6 | 8.0 | 0.00 | 0.00 | 0.00 | 40 | 1004.2 |
| 20260506184507 | 15 | 67 | 1.6 | 12.9 | 0.00 | 0.00 | 0.00 | 40 | 1004.5 |
| 20260506183006 | 15 | 10 | 0.0 | 3.2 | 0.00 | 0.00 | 0.00 | 40 | 1004.7 |
| 20260506181503 | 15 | 157 | 0.0 | 3.2 | 0.00 | 0.00 | 0.00 | 40 | 1005.0 |
| 20260506180002 | 15 | 82 | 0.0 | 4.8 | 0.00 | 0.00 | 0.00 | 40 | 1005.1 |
| 20260506174502 | 16 | 70 | 0.0 | 6.4 | 0.00 | 0.00 | 0.00 | 39 | 1005.3 |
| 20260506173002 | 16 | 52 | 0.0 | 4.8 | 0.00 | 0.00 | 0.00 | 39 | 1005.3 |
| 20260506171617 | 16 | 118 | 0.0 | 6.4 | 0.00 | 0.00 | 0.00 | 39 | 1005.3 |
| 20260506170100 | 17 | 70 | 0.0 | 4.8 | 0.00 | 0.00 | 0.00 | 39 | 1005.2 |
| 20260506164607 | 17 | 95 | 1.6 | 9.7 | 0.00 | 0.00 | 0.00 | 38 | 1005.3 |
| 20260506163106 | 18 | 91 | 0.0 | 12.9 | 0.00 | 0.00 | 0.00 | 38 | 1005.2 |
| 20260506161631 | 18 | 100 | 1.6 | 8.0 | 0.00 | 0.00 | 0.00 | 37 | 1005.4 |
| 20260506160101 | 18 | 74 | 3.2 | 8.0 | 0.00 | 0.00 | 0.00 | 38 | 1005.7 |
| 20260506154554 | 17 | 67 | 3.2 | 11.3 | 0.00 | 0.00 | 0.00 | 38 | 1006.1 |
| 20260506153056 | 17 | 351 | 0.0 | 6.4 | 0.00 | 0.00 | 0.00 | 38 | 1006.6 |
| 20260506151550 | 17 | 74 | 1.6 | 6.4 | 0.00 | 0.00 | 0.00 | 37 | 1006.5 |
| 20260506150049 | 18 | 73 | 1.6 | 11.3 | 0.00 | 0.00 | 0.00 | 37 | 1006.6 |
| 20260506144548 | 17 | 199 | 0.0 | 3.2 | 0.00 | 0.00 | 0.00 | 38 | 1006.3 |
| 20260506143047 | 17 | 106 | 1.6 | 11.3 | 0.00 | 0.00 | 0.00 | 38 | 1006.4 |
| 20260506141544 | 17 | 252 | 0.0 | 4.8 | 0.00 | 0.00 | 0.00 | 38 | 1006.5 |
| 20260506140042 | 16 | 59 | 3.2 | 11.3 | 0.00 | 0.00 | 0.00 | 38 | 1006.4 |
| 20260506134538 | 16 | 86 | 0.0 | 6.4 | 0.00 | 0.00 | 0.00 | 38 | 1006.4 |
| 20260506133035 | 16 | 146 | 0.0 | 4.8 | 0.00 | 0.00 | 0.00 | 38 | 1006.7 |
| 20260506131545 | 15 | 88 | 0.0 | 4.8 | 0.00 | 0.00 | 0.00 | 38 | 1007.1 |
| 20260506130044 | 15 | 83 | 0.0 | 6.4 | 0.00 | 0.00 | 0.00 | 38 | 1007.0 |
| 20260506124533 | 15 | 86 | 0.0 | 8.0 | 0.00 | 0.00 | 0.00 | 38 | 1006.9 |
| 20260506123032 | 15 | 98 | 0.0 | 6.4 | 0.00 | 0.00 | 0.00 | 38 | 1006.8 |
| 20260506121533 | 14 | 94 | 0.0 | 3.2 | 0.00 | 0.00 | 0.00 | 39 | 1007.0 |
| 20260506120032 | 13 | 94 | 0.0 | 0.0 | 0.00 | 0.00 | 0.00 | 39 | 1007.2 |
| 20260506114534 | 12 | 94 | 0.0 | 1.6 | 0.00 | 0.00 | 0.00 | 40 | 1007.3 |
| 20260506113028 | 11 | 94 | 0.0 | 0.0 | 0.00 | 0.00 | 0.00 | 40 | 1007.2 |
| 20260506111525 | 11 | 94 | 0.0 | 0.0 | 0.00 | 0.00 | 0.00 | 40 | 1007.3 |
| 20260506110025 | 11 | 94 | 0.0 | 0.0 | 0.00 | 0.00 | 0.00 | 40 | 1007.1 |
| 20260506104520 | 10 | 94 | 0.0 | 0.0 | 0.00 | 0.00 | 0.00 | 40 | 1007.3 |
| 20260506103021 | 10 | 94 | 0.0 | 0.0 | 0.00 | 0.00 | 0.00 | 40 | 1007.6 |
| 20260506101530 | 10 | 94 | 0.0 | 0.0 | 0.00 | 0.00 | 0.00 | 40 | 1007.7 |
| 20260506100015 | 10 | 94 | 0.0 | 0.0 | 0.00 | 0.00 | 0.00 | 40 | 1007.3 |
| 20260506094521 | 11 | 94 | 0.0 | 0.0 | 0.00 | 0.00 | 0.00 | 40 | 1007.2 |
| 20260506093014 | 11 | 94 | 0.0 | 0.0 | 0.00 | 0.00 | 0.00 | 40 | 1007.2 |
| 20260506091513 | 11 | 94 | 0.0 | 0.0 | 0.00 | 0.00 | 0.00 | 39 | 1007.1 |
| 20260506090007 | 11 | 94 | 0.0 | 0.0 | 0.00 | 0.00 | 0.00 | 39 | 1007.2 |
| 20260506084507 | 12 | 94 | 0.0 | 0.0 | 0.00 | 0.00 | 0.00 | 39 | 1007.2 |
| 20260506083005 | 12 | 94 | 0.0 | 0.0 | 0.00 | 0.00 | 0.00 | 39 | 1007.4 |
| 20260506081503 | 12 | 94 | 0.0 | 0.0 | 0.00 | 0.00 | 0.00 | 39 | 1007.3 |
| 20260506073058 | 13 | 94 | 0.0 | 0.0 | 0.00 | 0.00 | 0.00 | 39 | 1007.2 |
| 20260506071559 | 13 | 94 | 0.0 | 0.0 | 0.00 | 0.00 | 0.00 | 39 | 1007.1 |
| 20260506061551 | 15 | 94 | 0.0 | 0.0 | 0.00 | 0.00 | 0.00 | 39 | 1007.0 |
| 20260506044640 | 15 | 175 | 0.0 | 4.8 | 0.00 | 0.00 | 0.00 | 38 | 1007.2 |
| 20260506043043 | 14 | 82 | 0.0 | 0.0 | 0.00 | 0.00 | 0.00 | 39 | 1007.1 |
| 20260506041553 | 15 | 82 | 0.0 | 0.0 | 0.00 | 0.00 | 0.00 | 39 | 1006.8 |
| 20260506040039 | 15 | 82 | 0.0 | 0.0 | 0.00 | 0.00 | 0.00 | 39 | 1007.0 |
| 20260506034603 | 15 | 82 | 0.0 | 0.0 | 0.00 | 0.00 | 0.00 | 39 | 1006.9 |
| 20260506033038 | 15 | 82 | 0.0 | 0.0 | 0.00 | 0.00 | 0.00 | 39 | 1007.0 |
| 20260506031541 | 15 | 82 | 0.0 | 0.0 | 0.00 | 0.00 | 0.00 | 39 | 1006.9 |